Regional Weather Roundup
Issued by NWS

Home | Current Version | Previous Version | Text Only | Print | Product List | Glossary On
Versions: 1 2 3 4 5 6 7 8 9 10 11 12 13 14 15 16 17 18 19 20 21 22 23 24 25 26 27 28 29 30 31 32 33 34 35 36 37 38 39 40 41 42 43 44 45 46 47 48 49 50
000
ASUS43 KDTX 211601
RWRMI
MICHIGAN HOURLY REGIONAL WEATHER ROUNDUP
NATIONAL WEATHER SERVICE DETROIT/PONTIAC MI
1200 PM EDT THU SEP 21 2017

NOTE: "FAIR" INDICATES FEW OR NO CLOUDS BELOW 12,000 FEET WITH NO
SIGNIFICANT WEATHER AND/OR OBSTRUCTION TO VISIBILITY.

MIZ047>049-052>055-059>063-066>070-074>076-081>083-211700-
SOUTHEAST LOWER MICHIGAN

CITY           SKY/WX    TMP DP  RH WIND       PRES   REMARKS
ADRIAN         SUNNY     84  70  62 SW5       30.09S
ALMA           SUNNY     83  68  59 S3        30.06S
ANN ARBOR      SUNNY     82  71  69 S5        30.08S
BAD AXE        SUNNY     82  68  61 S9        30.07S
CARO           SUNNY     84  69  60 S7        30.05S
DETROIT CITY   SUNNY     82  71  69 SW6       30.08F
DETROIT        MOSUNNY   82  72  71 S5        30.09S
FLINT          SUNNY     84  70  62 S9        30.07S
GROSSE ILE     SUNNY     76  70  81 SE6       30.08S
HILLSDALE      CLOUDY    84  70  61 S3        30.10R
HOWELL         SUNNY     83  70  63 SE6       30.08S

CITY           SKY/WX    TMP DP  RH WIND       PRES   REMARKS
JACKSON        SUNNY     87  70  56 VRB5      30.08S HX  92
LAMBERTVILLE   SUNNY     84  71  64 CALM      30.08S
LANSING        SUNNY     88  69  53 SW9       30.07R HX  92
LAPEER         FAIR      84  69  58 S8        30.08S
MASON          SUNNY     88  70  54 SW3       30.07S HX  93
MONROE         SUNNY     83  71  68 CALM      30.07F
MT. CLEMENS    MOSUNNY   78  74  89 E8        30.08S
PONTIAC        MOSUNNY   82  71  69 E6        30.08S
PORT HURON     SUNNY     82  68  61 S6        30.09S
TRI CITIES     SUNNY     81  70  69 S3        30.06S
MIDLAND        FAIR      81  69  67 SE5       30.04S
TROY           SUNNY     83  71  66 S5        30.10S
SAGINAW HB     SUNNY     81  68  65 CALM      30.06R
$$
MIZ043>046-050>051-056>058-064>065-071>073-077>080-211700-
SOUTHWEST LOWER MICHIGAN

CITY           SKY/WX    TMP DP  RH WIND       PRES   REMARKS
BATTLE CREEK   MOSUNNY   85  71  63 SW8       30.08S HX  90
BENTON HARBOR  SUNNY     84  71  65 SW7       30.04R
BIG RAPIDS     MOSUNNY   79  67  66 S6        30.04S
COLDWATER      SUNNY     85  71  63 W3        30.08S HX  90
FREMONT        FAIR      81  70  70 SW7       30.05R
HOLLAND        SUNNY     84  69  60 SW9       30.06R
GRAND RAPIDS   PTSUNNY   85  70  60 SW6       30.05R
IONIA          FAIR      85  68  56 SW3       30.05S
KALAMAZOO      SUNNY     84  70  62 S9        30.06S
LUDINGTON      SUNNY     81  67  61 W7        30.03R
MARSHALL       SUNNY     85  72  64 SW7       30.07S HX  90
MOUNT PLEASANT MOSUNNY   83  67  59 SW3       30.04S
MUSKEGON       PTSUNNY   81  69  67 SW12      30.05R
SOUTH HAVEN    SUNNY     83  71  65 W7        30.05R
$$
MIZ016>042-211700-
NORTHERN LOWER MICHIGAN

CITY           SKY/WX    TMP DP  RH WIND       PRES   REMARKS
ALPENA         CLOUDY    78  70  76 S8        30.04S
BEAVER ISLAND  SUNNY     74  67  80 CALM      30.03S
BELLAIRE       SUNNY     80  66  62 CALM      30.02S
CADILLAC       SUNNY     83  64  53 S3        30.05S
CHARLEVOIX     SUNNY     79  68  68 NW7       30.06R
FRANKFORT      SUNNY     80  67  64 W5        30.03R
GAYLORD        MOSUNNY   81  63  54 SW8       30.05R
GRAYLING       SUNNY     83  65  55 S7        30.05S
HARBOR SPRINGS SUNNY     79  67  67 SW5       30.03R
HOUGHTON LAKE  MOSUNNY   80  68  66 VRB3      30.06S
MANISTEE       SUNNY     81  68  64 E3        30.02S
OSCODA         MOSUNNY   80  66  62 S8        30.05S
PELLSTON       SUNNY     82  69  64 VRB5      30.03R
ROGERS CITY    CLOUDY    74  68  79 S5        30.04S
TRAVERSE CITY  PTSUNNY   85  67  54 CALM      30.00S
$$
MIZ007>008-015-211700-
EASTERN UPPER MICHIGAN

CITY           SKY/WX    TMP DP  RH WIND       PRES   REMARKS
KINROSS        CLOUDY    70  67  90 CALM      30.05S
MACKINAC ISLAN MOSUNNY   74  67  80 NE5       30.04S
NEWBERRY       PTSUNNY   71  71  97 N3        30.04S
S. S. MARIE    CLOUDY    73  67  81 NE5       30.04S
MUNISING         N/A     65  63  93 E6        30.05S
$$
MIZ004>006-011>014-085-211700-
CENTRAL UPPER MICHIGAN

CITY           SKY/WX    TMP DP  RH WIND       PRES   REMARKS
MANISTIQUE     SUNNY     75  68  80 N7        30.03S
ESCANABA       CLOUDY    73  65  75 N5        30.04S
MENOMINEE      PTSUNNY   71  65  81 E12       30.04S
SAWYER-GWINN   PTSUNNY   66  55  68 NE5       30.08R
$$
MIZ001>003-009>011-084-211700-
WESTERN UPPER MICHIGAN

CITY           SKY/WX    TMP DP  RH WIND       PRES   REMARKS
IRON MOUNTAIN  SUNNY     71  58  63 E5        30.05F
HOUGHTON       SUNNY     65  54  67 E8        30.07S
COPPER HARBOR    N/A     60  55  83 E3        30.07R
IRONWOOD       SUNNY     69  56  62 SE7       30.04S
$$

ABBREVIATIONS USED IN REMARKS
   TC - TEMPERATURE IN CELSIUS
  WCI - WIND CHILL INDEX
   HX - HEAT INDEX
  VSB - VISIBILITY





USA.gov is the U.S. government's official web portal to all federal, state and local government web resources and services.